GFSNGP_850_dewp_210.txt.gz
Dewpoint
-1 -3 -5 -4 -5 -5 -5 -6 -4 -4 -7 -10 -1 -2 -4 -4 -4 -3 -3 -1 1 1 2 2 1 0 -2 -2 -4 -6 -5 -3 -1 2 2 2 2 1 1 3 2 2 4 4
-4 -4 -5 -4 -5 -5 -6 -6 -7 -8 -7 -3 -4 -5 -4 -3 -3 -3 -2 0 -0 1 2 2 -0 -0 -0 -1 -4 -4 -3 -2 -1 1 1 1 2 2 2 2 3 3 3 3
1 -3 -4 -1 -3 -5 -7 -9 -7 -3 -1 -5 -5 -3 -3 -3 -2 -0 -0 -1 -0 1 1 -1 -0 0 -1 -1 -4 -5 -5 -3 -1 0 0 -2 -1 -0 1 1 2 3 3 3
0 -3 -1 -7 -9 -8 -6 -2 -2 -3 -6 -5 -4 -3 -3 -3 -0 -1 -0 0 0 -0 -1 -1 -2 -1 0 -1 -4 -3 -3 -2 -1 -0 -3 -3 -2 -2 -1 -0 1 2 2 2
-1 -3 -6 -8 -9 -2 -2 -2 -4 -3 -4 -4 -2 -2 -4 -3 -0 -0 0 0 -1 -1 -0 -3 -3 -2 0 -1 -1 -2 -2 -1 -0 -1 -2 -3 -3 -2 -2 -1 -1 -0 1 0
-4 -3 -3 -6 -3 -4 -6 -2 -4 -4 -4 -4 -3 -2 -2 -1 -1 -1 -1 -1 -2 -1 1 -2 -3 -1 -1 -1 -0 -3 -2 -1 -1 -2 -3 -3 -3 -3 -3 -2 -1 -1 -1 -1
-4 -3 -2 -2 -2 -5 -1 -4 -5 -4 -3 -1 -2 -2 -1 -0 -1 -2 -1 -2 -2 -1 1 1 -0 -0 -1 -0 -0 -3 -2 -1 -1 -3 -3 -3 -4 -4 -3 -3 -3 -2 -2 -2
-2 -1 -3 -3 -4 -6 -7 -9 -7 -5 -3 -2 -2 -1 -0 -1 -2 -2 -2 -2 -2 -1 0 1 1 1 1 1 -0 -1 -2 -1 -1 -3 -4 -4 -4 -4 -4 -4 -4 -4 -3 -3
-5 -5 -8 -10 -8 -9 -9 -6 -5 -3 -3 -2 -1 -1 -2 -3 -2 -3 -3 -3 -2 -2 -1 0 1 1 1 1 1 0 -1 -1 -1 -2 -4 -4 -4 -4 -4 -4 -4 -4 -3 -3
-6 -9 -8 -11 -9 -7 -5 -5 -3 -2 -2 -1 -1 -2 -3 -3 -3 -3 -3 -3 -3 -2 -2 -1 -0 -0 -0 0 1 0 -0 -0 -1 -1 -3 -4 -4 -4 -5 -4 -4 -4 -4 -4
-7 -7 -8 -8 -8 -6 -5 -4 -3 -1 -1 -2 -2 -3 -3 -3 -3 -3 -3 -3 -3 -3 -2 -2 -1 -2 -1 0 0 -1 -1 -1 -1 -1 -2 -4 -4 -4 -4 -4 -4 -4 -4 -4
-5 -7 -5 -5 -4 -5 -4 -3 -3 -3 -3 -3 -4 -4 -4 -4 -4 -4 -4 -4 -4 -4 -3 -2 -2 -2 -2 -1 -0 -1 -1 -1 -1 -1 -2 -3 -4 -5 -5 -4 -4 -4 -4 -5
-6 -6 -4 -4 -1 -1 -2 -3 -4 -3 -3 -4 -4 -4 -4 -4 -5 -4 -4 -4 -4 -4 -4 -4 -3 -3 -2 -2 -2 -2 -2 -2 -2 -1 -1 -2 -4 -4 -5 -5 -4 -4 -4 -4
-7 -4 -3 -2 -2 -3 -4 -4 -4 -4 -4 -5 -5 -5 -5 -6 -4 -4 -5 -5 -4 -5 -4 -4 -4 -3 -3 -3 -3 -3 -3 -3 -3 -2 -2 -2 -3 -4 -4 -4 -5 -5 -4 -4
-3 -3 -3 -2 -3 -4 -5 -5 -5 -5 -6 -6 -6 -6 -6 -6 -5 -5 -5 -5 -5 -4 -5 -5 -4 -4 -3 -3 -3 -4 -4 -3 -3 -3 -2 -2 -3 -4 -4 -4 -4 -5 -5 -5
-3 -4 -3 -3 -4 -5 -6 -6 -6 -6 -6 -6 -5 -7 -9 -6 -6 -6 -6 -6 -5 -5 -5 -6 -5 -4 -4 -4 -4 -5 -5 -5 -4 -3 -3 -3 -4 -4 -4 -4 -4 -5 -5 -6
-3 -3 -4 -4 -6 -6 -6 -6 -5 -5 -5 -5 -7 -10 -9 -8 -7 -6 -6 -6 -5 -5 -6 -6 -6 -5 -4 -4 -4 -5 -5 -5 -5 -5 -4 -4 -5 -4 -4 -4 -4 -5 -5 -5
-5 -5 -6 -6 -6 -6 -4 -5 -5 -5 -5 -5 -6 -10 -9 -8 -8 -7 -7 -7 -6 -7 -7 -7 -6 -6 -5 -5 -5 -5 -5 -5 -6 -5 -5 -5 -5 -5 -4 -4 -4 -4 -5 -5
-5 -6 -5 -5 -5 -5 -4 -4 -5 -5 -6 -8 -9 -10 -8 -7 -7 -7 -7 -7 -6 -7 -8 -7 -7 -6 -6 -6 -5 -5 -5 -5 -6 -6 -6 -6 -6 -5 -5 -5 -4 -4 -4 -5
-4 -4 -4 -3 -3 -4 -4 -5 -6 -8 -10 -8 -7 -7 -7 -8 -7 -7 -7 -7 -7 -8 -8 -8 -7 -7 -7 -6 -5 -5 -5 -5 -6 -6 -6 -6 -6 -6 -5 -5 -5 -4 -4 -5
-3 -4 -4 -5 -5 -5 -5 -6 -8 -8 -8 -6 -6 -8 -8 -8 -7 -7 -7 -7 -8 -8 -8 -8 -10 -8 -7 -7 -5 -5 -5 -5 -6 -6 -6 -6 -6 -6 -6 -5 -5 -5 -5 -5
-6 -6 -5 -5 -6 -6 -7 -8 -8 -7 -7 -6 -7 -7 -8 -7 -7 -8 -8 -9 -10 -11 -10 -9 -9 -8 -8 -7 -6 -5 -5 -5 -6 -5 -6 -6 -6 -6 -6 -6 -6 -5 -5 -5
-8 -7 -6 -7 -7 -9 -9 -8 -7 -7 -7 -7 -8 -8 -8 -9 -10 -10 -11 -11 -11 -12 -11 -11 -11 -9 -10 -9 -7 -6 -5 -5 -5 -5 -5 -5 -5 -5 -5 -5 -6 -6 -6 -6
-10 -9 -11 -12 -11 -9 -10 -11 -9 -9 -8 -8 -9 -9 -10 -12 -13 -14 -14 -14 -12 -12 -12 -11 -12 -11 -10 -10 -8 -7 -6 -6 -5 -5 -5 -5 -5 -5 -5 -5 -5 -6 -6 -6
-10 -10 -11 -10 -9 -9 -10 -10 -8 -8 -9 -9 -10 -11 -13 -14 -16 -17 -17 -15 -12 -13 -12 -12 -12 -12 -12 -10 -10 -8 -7 -6 -6 -5 -5 -5 -5 -5 -5 -5 -5 -5 -5 -6
-8 -9 -9 -10 -10 -11 -12 -11 -11 -11 -11 -12 -12 -14 -15 -17 -17 -17 -16 -16 -15 -14 -13 -12 -13 -13 -14 -12 -11 -10 -8 -7 -6 -6 -6 -5 -5 -5 -5 -5 -5 -5 -5 -6
-10 -10 -11 -12 -13 -13 -13 -12 -13 -13 -14 -14 -16 -17 -18 -18 -18 -18 -18 -17 -16 -15 -14 -14 -14 -15 -15 -14 -12 -10 -10 -9 -7 -6 -6 -6 -5 -5 -5 -5 -6 -6 -6 -6

GFSNGP_850_dewp_216.txt.gz
Dewpoint
3 1 0 2 3 2 2 2 2 -0 0 -2 -6 -4 -6 -6 -6 -4 -3 -3 -2 -1 -0 -0 0 0 1 1 2 0 1 -3 -4 -6 -5 -3 -3 -2 -1 -1 -1 -1 0 2
-3 -2 -1 -1 -0 -0 0 -0 -1 -4 -5 -6 -7 -8 -7 -8 -5 -4 -2 -1 -0 -1 -0 -0 -0 0 1 0 0 1 1 -2 -5 -5 -4 -3 -3 -2 -3 -2 -2 -3 -3 -0
0 -2 -2 -1 -3 -4 -5 -6 -5 -4 -6 -5 -8 -7 -5 -7 -5 -3 -2 -1 -1 -0 -1 -1 -0 0 1 -1 -0 1 0 -1 -4 -4 -4 -3 -3 -3 -3 -3 -3 -3 -2 -1
1 -1 -2 -6 -7 -8 -6 -6 -6 -3 -3 -6 -7 -7 -4 -8 -3 -3 -2 -1 -2 -3 -2 -1 -0 1 1 -0 2 1 -0 -1 -2 -2 -3 -3 -3 -3 -3 -3 -4 -3 -2 -1
-1 -1 -4 -9 -2 -2 -2 -3 -5 -5 -5 -6 -6 -4 -7 -9 -5 -3 -2 -1 -2 -2 -2 -1 -1 1 2 2 1 1 0 -0 -1 -1 -1 -2 -3 -3 -3 -4 -4 -4 -3 -2
-4 -4 -3 -5 -3 -3 -3 -4 -6 -5 -5 -4 -5 -5 -7 -7 -4 -2 -2 -2 -2 -2 -2 -2 -1 -0 1 1 0 1 1 -0 -1 -1 -1 -2 -3 -4 -4 -4 -5 -4 -4 -3
-8 -8 -6 -6 -3 -3 -6 -7 -8 -8 -8 -4 -5 -5 -5 -4 -3 -2 -2 -2 -2 -3 -3 -2 -1 -1 -1 -1 -1 -0 0 -1 -2 -2 -2 -2 -2 -3 -4 -4 -5 -5 -4 -4
-5 -8 -6 -4 -3 -5 -8 -10 -9 -9 -8 -6 -4 -3 -3 -3 -2 -2 -3 -3 -3 -4 -4 -3 -2 -2 -2 -2 -2 -2 -1 -2 -2 -3 -3 -3 -3 -3 -4 -5 -5 -5 -5 -4
-6 -6 -9 -6 -9 -11 -10 -9 -9 -7 -5 -3 -3 -2 -2 -2 -2 -2 -4 -5 -4 -4 -4 -4 -3 -3 -3 -3 -3 -3 -2 -2 -4 -4 -2 -3 -2 -2 -3 -5 -5 -5 -5 -4
-7 -9 -8 -10 -11 -10 -8 -7 -5 -5 -4 -3 -2 -2 -2 -3 -3 -4 -5 -5 -5 -5 -4 -4 -5 -5 -5 -4 -4 -3 -3 -3 -3 -3 -3 -3 -2 -2 -3 -4 -5 -5 -5 -4
-8 -8 -9 -10 -10 -9 -6 -5 -4 -3 -2 -2 -2 -3 -4 -4 -3 -5 -5 -5 -5 -5 -5 -5 -5 -5 -6 -5 -5 -5 -3 -3 -4 -4 -3 -3 -2 -2 -3 -4 -4 -5 -5 -4
-7 -10 -9 -9 -10 -7 -4 -4 -2 -2 -3 -3 -3 -4 -4 -5 -6 -6 -6 -5 -5 -5 -5 -5 -5 -6 -6 -6 -5 -5 -5 -5 -5 -5 -5 -4 -4 -3 -3 -4 -4 -5 -5 -5
-9 -11 -10 -8 -9 -6 -3 -4 -4 -4 -3 -3 -4 -4 -5 -6 -8 -8 -6 -6 -6 -6 -6 -6 -6 -6 -6 -6 -6 -6 -6 -6 -6 -6 -5 -4 -4 -4 -4 -4 -4 -5 -5 -5
-9 -8 -7 -9 -7 -4 -3 -3 -4 -4 -4 -4 -5 -6 -6 -6 -11 -10 -8 -8 -7 -6 -6 -7 -8 -8 -7 -6 -6 -6 -5 -6 -6 -6 -5 -5 -4 -4 -4 -4 -4 -5 -5 -5
-9 -9 -9 -7 -3 -3 -3 -3 -5 -5 -5 -5 -6 -6 -6 -7 -11 -10 -9 -10 -8 -7 -7 -7 -8 -9 -7 -7 -7 -7 -6 -5 -6 -6 -5 -5 -5 -5 -5 -4 -5 -5 -5 -5
-7 -4 -3 -2 -3 -3 -3 -6 -6 -6 -6 -6 -5 -5 -5 -6 -8 -11 -11 -11 -9 -7 -7 -7 -9 -11 -9 -8 -7 -7 -6 -5 -5 -5 -5 -6 -6 -5 -5 -5 -5 -5 -5 -5
-3 -3 -2 -3 -3 -4 -5 -6 -6 -6 -6 -5 -5 -5 -5 -8 -10 -9 -10 -10 -9 -8 -7 -8 -12 -13 -13 -13 -8 -7 -7 -6 -5 -5 -6 -6 -6 -6 -6 -5 -5 -5 -5 -5
-4 -4 -4 -5 -6 -5 -5 -6 -6 -6 -5 -5 -4 -5 -6 -9 -9 -8 -8 -8 -8 -8 -8 -10 -10 -11 -12 -13 -13 -9 -7 -7 -6 -6 -5 -6 -6 -6 -6 -6 -6 -5 -5 -5
-4 -3 -4 -4 -4 -4 -4 -4 -4 -4 -5 -5 -6 -7 -7 -7 -7 -7 -7 -8 -8 -8 -9 -9 -10 -11 -12 -13 -15 -14 -12 -8 -6 -6 -6 -6 -6 -6 -6 -6 -5 -5 -5 -5
-4 -4 -3 -4 -5 -5 -5 -5 -5 -6 -6 -7 -7 -7 -7 -7 -7 -7 -7 -8 -8 -8 -8 -10 -12 -14 -14 -15 -15 -15 -14 -12 -8 -6 -6 -6 -6 -6 -6 -6 -6 -6 -6 -5
-4 -4 -5 -6 -7 -7 -7 -6 -7 -8 -8 -7 -7 -7 -7 -7 -7 -7 -8 -8 -8 -9 -12 -16 -18 -18 -17 -17 -16 -16 -15 -13 -12 -7 -7 -6 -6 -6 -6 -6 -6 -6 -6 -6
-6 -7 -7 -8 -9 -9 -10 -10 -9 -10 -11 -11 -10 -10 -8 -9 -9 -9 -10 -10 -11 -14 -17 -19 -20 -20 -19 -17 -16 -17 -17 -16 -12 -10 -7 -7 -6 -6 -6 -6 -6 -6 -6 -6
-7 -8 -9 -9 -9 -9 -10 -9 -9 -10 -10 -9 -8 -9 -9 -10 -10 -11 -12 -13 -13 -14 -17 -18 -20 -22 -21 -19 -17 -16 -17 -17 -17 -12 -10 -7 -7 -6 -6 -6 -6 -6 -6 -6
-8 -9 -10 -9 -9 -9 -9 -10 -10 -10 -10 -10 -11 -11 -12 -12 -13 -15 -17 -18 -19 -20 -21 -21 -22 -23 -23 -22 -20 -18 -18 -18 -18 -16 -14 -10 -7 -7 -6 -6 -6 -6 -6 -6
-12 -11 -11 -12 -14 -14 -13 -12 -12 -13 -13 -13 -13 -14 -15 -15 -16 -16 -17 -17 -18 -19 -21 -23 -24 -24 -24 -24 -23 -21 -20 -20 -19 -19 -16 -13 -9 -8 -7 -6 -6 -6 -6 -6
-13 -13 -13 -14 -14 -14 -12 -12 -12 -12 -13 -14 -15 -16 -17 -18 -18 -19 -20 -20 -20 -20 -21 -21 -22 -22 -22 -23 -23 -23 -22 -22 -20 -19 -19 -14 -14 -9 -7 -7 -6 -6 -6 -6
-13 -13 -14 -14 -14 -13 -13 -13 -14 -15 -16 -17 -17 -18 -19 -20 -20 -20 -20 -20 -20 -20 -20 -20 -20 -20 -20 -21 -21 -21 -20 -20 -20 -18 -20 -19 -16 -14 -8 -7 -7 -6 -6 -6

GFSNGP_850_dewp_219.txt.gz
Dewpoint
5 4 3 3 4 3 3 2 3 1 0 -4 -6 -6 -7 -8 -8 -6 -4 -3 -3 -2 -1 -1 -1 -1 0 0 1 2 2 1 -1 -4 -4 -5 -5 -5 -4 -4 -3 -3 -3 -3
2 -0 -0 0 -1 1 0 0 -1 -2 -3 -6 -6 -8 -8 -9 -7 -6 -3 -5 -3 -1 -1 -1 -2 -1 -1 -0 1 1 2 1 -2 -2 -2 -3 -4 -4 -4 -3 -3 -3 -4 -4
2 -2 -3 -1 -2 -4 -5 -6 -7 -7 -8 -6 -6 -7 -8 -7 -7 -5 -4 -2 -2 -1 -1 -2 -2 -1 -1 1 1 2 1 -1 -1 -1 -2 -3 -3 -3 -3 -3 -3 -4 -4 -4
1 -2 1 -6 -6 -8 -7 -7 -8 -6 -8 -8 -6 -6 -6 -6 -7 -5 -2 -2 -1 -1 -2 -2 -2 -1 -1 -0 0 1 0 -0 -1 -1 -2 -2 -2 -2 -3 -4 -4 -4 -5 -4
1 -1 -4 -8 -4 -5 -5 -7 -7 -4 -6 -8 -7 -5 -7 -8 -6 -3 -2 -1 -2 -2 -2 -2 -3 -1 -1 -1 0 0 -0 -1 -1 -2 -2 -2 -2 -3 -3 -4 -4 -5 -5 -4
-3 -3 -5 -9 -4 -4 -4 -6 -7 -5 -5 -5 -5 -4 -6 -6 -4 -2 -2 -2 -3 -3 -3 -3 -3 -2 -2 -2 -2 -2 -2 -2 -2 -2 -2 -3 -3 -3 -3 -3 -4 -5 -5 -5
-3 -2 -6 -9 -4 -3 -5 -9 -10 -8 -7 -5 -4 -5 -4 -2 -2 -2 -2 -3 -3 -3 -4 -4 -4 -3 -3 -3 -3 -3 -3 -3 -3 -3 -4 -3 -3 -3 -3 -3 -4 -5 -6 -5
-5 -4 -4 -5 -3 -4 -8 -11 -8 -8 -7 -6 -4 -2 -2 -2 -3 -3 -3 -3 -4 -4 -4 -4 -4 -4 -4 -5 -5 -4 -4 -4 -4 -4 -4 -3 -3 -3 -3 -2 -4 -5 -5 -5
-5 -7 -9 -4 -8 -10 -11 -10 -8 -7 -7 -4 -3 -2 -2 -3 -2 -3 -4 -4 -4 -4 -5 -4 -5 -5 -5 -5 -5 -5 -4 -3 -3 -4 -4 -4 -4 -3 -3 -2 -3 -5 -5 -5
-8 -11 -8 -8 -7 -10 -12 -10 -8 -5 -4 -3 -2 -2 -2 -3 -3 -3 -4 -5 -4 -5 -5 -5 -5 -6 -6 -6 -6 -5 -5 -5 -4 -5 -5 -5 -4 -4 -3 -3 -4 -4 -5 -5
-5 -8 -9 -11 -12 -12 -10 -8 -5 -4 -2 -2 -2 -3 -3 -3 -4 -4 -5 -6 -5 -5 -5 -5 -5 -6 -6 -6 -6 -6 -6 -6 -6 -5 -5 -5 -5 -4 -4 -4 -4 -4 -5 -5
-7 -10 -8 -11 -11 -10 -9 -7 -4 -3 -3 -4 -3 -3 -4 -4 -6 -7 -9 -7 -7 -6 -6 -5 -5 -7 -7 -7 -7 -6 -6 -6 -5 -5 -5 -5 -5 -5 -4 -4 -4 -4 -5 -5
-10 -12 -10 -10 -10 -9 -8 -5 -4 -4 -4 -4 -4 -4 -4 -6 -6 -10 -11 -7 -7 -7 -6 -6 -6 -7 -7 -9 -7 -7 -7 -6 -6 -6 -6 -6 -5 -5 -5 -4 -4 -4 -4 -5
-10 -9 -8 -8 -7 -9 -4 -3 -3 -4 -4 -4 -4 -4 -5 -6 -6 -8 -10 -10 -9 -9 -7 -7 -8 -9 -11 -11 -11 -9 -7 -7 -6 -6 -6 -6 -5 -6 -5 -5 -5 -5 -5 -5
-9 -8 -7 -8 -8 -5 -3 -3 -3 -4 -5 -5 -5 -5 -6 -6 -6 -6 -8 -10 -10 -10 -7 -8 -8 -11 -13 -15 -16 -11 -9 -7 -6 -6 -6 -6 -5 -6 -6 -5 -5 -5 -5 -5
-4 -5 -3 -3 -2 -2 -2 -3 -4 -6 -6 -6 -6 -6 -5 -5 -5 -6 -9 -10 -10 -10 -8 -8 -9 -11 -12 -13 -15 -16 -16 -12 -7 -6 -6 -6 -6 -6 -6 -6 -6 -5 -5 -5
-3 -2 -3 -4 -4 -4 -4 -3 -3 -4 -5 -5 -5 -5 -4 -4 -5 -7 -9 -8 -8 -9 -8 -8 -9 -10 -11 -12 -13 -14 -16 -16 -13 -7 -6 -6 -6 -7 -6 -6 -6 -6 -6 -5
-4 -4 -3 -3 -3 -3 -4 -3 -3 -4 -4 -4 -4 -5 -5 -6 -6 -7 -8 -7 -7 -8 -8 -8 -9 -10 -12 -14 -14 -15 -15 -16 -14 -10 -7 -6 -6 -6 -6 -6 -6 -6 -6 -6
-4 -4 -4 -4 -4 -4 -5 -5 -5 -5 -5 -5 -6 -6 -7 -7 -7 -7 -7 -7 -7 -7 -8 -8 -9 -11 -16 -17 -17 -17 -17 -18 -17 -13 -9 -7 -7 -6 -6 -6 -6 -6 -6 -6
-4 -4 -4 -5 -7 -7 -7 -7 -7 -7 -7 -8 -8 -8 -8 -8 -8 -7 -7 -7 -8 -8 -9 -9 -11 -16 -18 -19 -19 -20 -19 -18 -18 -18 -15 -9 -7 -6 -6 -6 -6 -6 -6 -6
-4 -5 -6 -7 -8 -9 -9 -10 -11 -10 -9 -10 -11 -10 -10 -9 -9 -9 -9 -9 -10 -10 -10 -11 -13 -17 -18 -20 -21 -21 -21 -20 -19 -19 -17 -16 -8 -7 -6 -6 -6 -6 -6 -6
-6 -7 -8 -9 -9 -9 -10 -9 -8 -8 -8 -9 -10 -9 -9 -9 -10 -10 -11 -11 -12 -12 -13 -14 -16 -17 -18 -19 -21 -22 -23 -21 -19 -18 -18 -17 -16 -8 -7 -6 -6 -6 -6 -6
-8 -9 -10 -11 -11 -10 -10 -11 -12 -11 -11 -10 -11 -11 -11 -12 -12 -12 -13 -13 -16 -17 -18 -18 -19 -20 -22 -23 -22 -23 -24 -23 -22 -20 -20 -19 -18 -15 -8 -7 -7 -6 -6 -6
-13 -13 -11 -11 -13 -12 -12 -11 -11 -11 -12 -12 -12 -12 -13 -13 -13 -14 -14 -16 -17 -18 -18 -18 -19 -19 -19 -21 -23 -24 -24 -24 -23 -22 -21 -21 -20 -17 -12 -8 -7 -7 -6 -6
-14 -12 -13 -13 -12 -12 -12 -13 -12 -12 -13 -13 -14 -14 -16 -17 -17 -19 -19 -20 -20 -21 -21 -21 -21 -21 -21 -21 -21 -22 -22 -23 -23 -21 -21 -21 -20 -19 -17 -13 -8 -7 -7 -6
-14 -13 -13 -14 -12 -13 -13 -14 -14 -14 -15 -16 -17 -18 -19 -20 -20 -20 -20 -20 -20 -20 -20 -20 -20 -20 -20 -20 -20 -21 -21 -21 -22 -21 -19 -20 -21 -21 -20 -18 -10 -8 -7 -7
-14 -15 -16 -14 -14 -14 -15 -15 -16 -16 -17 -18 -19 -19 -19 -19 -18 -18 -18 -18 -18 -17 -17 -17 -17 -18 -18 -19 -19 -20 -20 -20 -20 -19 -19 -18 -20 -22 -22 -19 -16 -8 -8 -7

GFSNGP_850_dewp_225.txt.gz
Dewpoint
7 7 6 6 6 6 6 7 8 6 4 1 -1 -4 -8 -12 -14 -13 -13 -12 -11 -10 -9 -9 -4 -3 -2 -2 -2 -1 -0 -0 0 0 0 -1 -3 -3 -4 -4 -5 -4 -4 -4
6 5 6 7 6 6 7 5 3 3 2 -2 -5 -10 -13 -14 -12 -12 -12 -9 -8 -8 -8 -5 -3 -2 -2 -2 -2 -1 -2 -2 -1 -1 -1 -0 -1 -2 -2 -4 -4 -4 -4 -5
8 5 2 4 3 1 -0 -1 1 4 -0 -9 -11 -15 -13 -12 -11 -9 -7 -7 -7 -6 -5 -3 -2 -2 -2 -3 -2 -2 -1 -1 -2 -1 -1 -2 -2 -2 -2 -4 -4 -4 -4 -4
8 4 7 -0 -7 -6 -3 -3 -5 -5 -9 -13 -15 -12 -13 -11 -9 -7 -5 -5 -5 -3 -2 -2 -2 -3 -2 -3 -3 -3 -3 -3 -2 -2 -1 -1 -1 -2 -2 -2 -3 -3 -4 -4
7 5 2 -0 -5 -6 -6 -6 -10 -10 -13 -14 -12 -12 -11 -10 -6 -5 -4 -4 -3 -3 -3 -3 -3 -3 -3 -3 -3 -4 -4 -4 -4 -3 -3 -3 -3 -3 -2 -2 -2 -2 -2 -2
6 6 5 -4 -8 -11 -12 -12 -16 -5 -10 -10 -9 -3 -6 -7 -6 -4 -3 -3 -3 -3 -4 -5 -4 -4 -4 -4 -4 -4 -4 -4 -3 -3 -3 -3 -3 -3 -3 -2 -2 -3 -3 -3
5 6 2 -7 -9 -10 -7 -6 -8 -8 -9 -9 -5 -6 -6 -7 -5 -3 -3 -3 -4 -5 -6 -5 -5 -4 -5 -5 -5 -5 -4 -4 -4 -4 -4 -4 -3 -3 -3 -3 -2 -3 -4 -3
2 5 4 -9 -7 -6 -6 -7 -9 -11 -11 -10 -8 -8 -7 -6 -3 -3 -4 -5 -6 -6 -6 -6 -6 -5 -6 -7 -7 -6 -5 -5 -4 -5 -5 -4 -4 -6 -5 -4 -4 -4 -3 -3
-4 -4 -8 -9 -7 -9 -10 -9 -9 -9 -10 -10 -8 -8 -6 -5 -4 -4 -5 -6 -7 -7 -8 -7 -6 -6 -7 -7 -7 -7 -6 -6 -5 -4 -4 -5 -5 -5 -5 -4 -4 -5 -4 -4
-10 -13 -13 -12 -10 -10 -10 -10 -9 -9 -10 -11 -9 -6 -6 -4 -4 -4 -5 -6 -7 -8 -9 -8 -8 -7 -6 -7 -7 -8 -7 -7 -6 -5 -6 -5 -5 -4 -5 -5 -5 -5 -5 -4
-6 -10 -11 -12 -13 -13 -12 -12 -12 -12 -11 -9 -8 -7 -5 -4 -4 -4 -5 -5 -6 -9 -10 -9 -9 -8 -7 -8 -7 -8 -8 -7 -6 -5 -6 -6 -5 -5 -5 -5 -5 -5 -5 -5
-4 -11 -10 -10 -11 -11 -11 -11 -10 -10 -10 -9 -8 -5 -3 -3 -4 -3 -4 -5 -7 -9 -10 -10 -9 -8 -8 -8 -8 -7 -7 -7 -6 -7 -6 -5 -5 -6 -6 -5 -6 -5 -5 -5
-12 -12 -11 -9 -8 -9 -8 -8 -8 -9 -9 -7 -4 -3 -4 -4 -4 -3 -4 -5 -7 -8 -9 -9 -9 -7 -8 -8 -7 -8 -7 -7 -7 -6 -6 -6 -5 -5 -5 -7 -7 -6 -5 -5
-11 -9 -7 -7 -8 -8 -7 -7 -8 -7 -6 -3 -2 -2 -3 -4 -4 -3 -3 -4 -5 -6 -7 -8 -8 -7 -8 -7 -7 -7 -7 -7 -6 -6 -6 -6 -6 -6 -5 -5 -5 -5 -5 -5
-8 -8 -7 -7 -6 -6 -5 -4 -3 -4 -3 -2 -2 -3 -3 -3 -4 -3 -3 -3 -3 -4 -5 -5 -6 -6 -7 -7 -7 -7 -7 -6 -6 -7 -7 -6 -6 -7 -6 -6 -6 -6 -5 -5
-5 -5 -5 -5 -4 -4 -4 -4 -4 -5 -5 -4 -3 -3 -3 -3 -3 -3 -3 -3 -4 -4 -5 -5 -6 -6 -7 -7 -8 -8 -7 -7 -7 -7 -7 -6 -6 -7 -7 -6 -6 -5 -6 -5
-4 -4 -4 -4 -5 -5 -4 -3 -3 -3 -4 -4 -4 -4 -5 -5 -6 -6 -5 -5 -5 -6 -6 -6 -7 -7 -8 -8 -9 -9 -7 -8 -8 -8 -7 -7 -7 -7 -7 -7 -6 -6 -6 -6
-4 -4 -3 -3 -3 -3 -4 -4 -5 -5 -5 -6 -6 -7 -7 -8 -7 -7 -7 -7 -7 -7 -7 -7 -7 -7 -7 -8 -8 -9 -9 -8 -8 -8 -8 -8 -8 -8 -7 -7 -7 -7 -6 -6
-4 -4 -4 -5 -6 -6 -7 -7 -7 -8 -8 -8 -8 -8 -9 -9 -8 -8 -10 -10 -9 -8 -7 -8 -8 -8 -9 -9 -10 -10 -9 -9 -9 -9 -9 -9 -9 -8 -8 -8 -8 -8 -6 -6
-4 -5 -6 -7 -8 -8 -8 -9 -10 -10 -9 -9 -10 -9 -9 -9 -9 -10 -10 -9 -9 -9 -10 -10 -11 -10 -10 -10 -10 -10 -10 -10 -10 -10 -10 -9 -10 -9 -10 -9 -9 -9 -8 -7
-6 -7 -9 -9 -11 -11 -10 -13 -10 -12 -11 -12 -11 -11 -10 -11 -10 -11 -10 -10 -10 -10 -11 -11 -11 -11 -11 -11 -11 -11 -12 -11 -11 -11 -11 -11 -11 -10 -10 -10 -10 -10 -9 -8
-11 -12 -11 -9 -12 -14 -14 -14 -11 -14 -12 -11 -12 -15 -12 -14 -14 -15 -15 -14 -12 -11 -12 -12 -12 -12 -12 -13 -13 -13 -13 -13 -13 -12 -12 -12 -11 -11 -12 -12 -10 -10 -10 -10
-13 -14 -14 -13 -14 -15 -16 -15 -15 -15 -15 -14 -15 -14 -14 -15 -15 -14 -14 -15 -14 -14 -14 -14 -14 -14 -14 -14 -14 -14 -13 -13 -13 -13 -13 -13 -13 -12 -12 -11 -11 -11 -11 -10
-13 -14 -15 -15 -15 -16 -16 -16 -16 -16 -16 -16 -16 -16 -15 -15 -14 -14 -14 -13 -14 -14 -15 -15 -14 -14 -15 -15 -15 -15 -15 -14 -14 -14 -13 -12 -13 -13 -13 -12 -12 -12 -11 -11
-13 -15 -15 -16 -16 -16 -16 -16 -16 -16 -16 -16 -15 -14 -14 -14 -14 -14 -14 -14 -15 -15 -15 -15 -15 -15 -15 -15 -15 -15 -14 -14 -14 -14 -14 -13 -13 -12 -13 -14 -12 -12 -12 -12
-15 -15 -15 -16 -16 -16 -16 -16 -15 -15 -14 -14 -14 -14 -14 -15 -15 -15 -16 -16 -16 -16 -15 -16 -16 -16 -16 -15 -15 -15 -15 -15 -15 -14 -14 -14 -14 -14 -14 -13 -13 -12 -12 -12
-15 -15 -15 -15 -16 -16 -15 -14 -13 -14 -14 -14 -15 -15 -15 -15 -15 -16 -16 -16 -16 -16 -16 -16 -16 -16 -16 -16 -16 -16 -16 -15 -16 -15 -15 -14 -14 -14 -14 -14 -13 -13 -13 -12

GFSNGP_850_dewp_231.txt.gz
Dewpoint
7 6 6 6 6 6 7 6 8 7 7 5 4 6 6 5 3 -12 -12 -12 -8 -7 -6 -6 -5 -4 -4 -4 -5 -5 -6 -5 -4 -2 -1 -1 -1 -1 -1 -1 -1 -2 -1 -2
7 6 6 6 5 5 5 6 7 7 8 4 4 3 -5 -7 -12 -12 -12 -9 -7 -5 -5 -5 -4 -4 -5 -6 -5 -6 -5 -6 -5 -3 -2 -2 -3 -2 -3 -3 -3 -4 -3 -2
8 5 7 7 4 3 5 5 6 8 6 4 3 1 -10 -12 -12 -11 -10 -9 -5 -5 -4 -4 -5 -4 -5 -6 -5 -6 -6 -7 -7 -6 -5 -5 -4 -5 -3 -3 -3 -5 -3 -3
8 7 8 2 -5 -4 1 0 1 -1 -3 -10 -10 -12 -12 -12 -12 -11 -10 -6 -5 -4 -4 -4 -4 -4 -5 -4 -5 -6 -5 -5 -5 -7 -6 -5 -6 -5 -4 -3 -4 -5 -4 -4
8 7 6 4 -3 -4 -4 -4 -4 -5 -7 -8 -11 -12 -11 -11 -9 -6 -6 -6 -5 -4 -4 -4 -4 -6 -5 -4 -5 -5 -5 -5 -5 -8 -8 -5 -5 -4 -4 -4 -4 -4 -4 -3
5 6 7 -2 -9 -11 -9 -3 -5 -5 -4 -6 -9 -5 -5 -10 -10 -8 -7 -6 -5 -4 -4 -5 -6 -5 -5 -5 -5 -6 -5 -5 -7 -7 -7 -7 -6 -4 -4 -4 -4 -4 -4 -4
5 6 5 -3 -9 -8 -1 1 -8 -10 -10 -10 -7 -8 -10 -10 -10 -8 -7 -6 -5 -5 -7 -5 -5 -5 -6 -6 -6 -7 -6 -7 -7 -6 -6 -6 -5 -5 -5 -5 -5 -5 -4 -5
4 5 5 -7 -6 -3 -2 -5 -6 -9 -10 -9 -9 -10 -11 -10 -10 -8 -8 -7 -7 -5 -6 -6 -5 -5 -6 -6 -6 -6 -7 -7 -8 -7 -7 -6 -5 -5 -5 -5 -5 -4 -5 -6
3 4 -3 -6 -5 -7 -8 -8 -9 -10 -10 -9 -8 -8 -8 -7 -9 -10 -10 -8 -6 -5 -5 -5 -3 -2 -7 -7 -7 -7 -7 -7 -8 -7 -7 -7 -6 -8 -5 -5 -5 -5 -5 -5
-1 -2 -7 -10 -10 -10 -9 -8 -9 -11 -10 -10 -10 -9 -10 -10 -10 -7 -5 -4 -4 -5 -6 -7 -5 -4 -7 -8 -7 -7 -7 -7 -7 -8 -7 -7 -8 -10 -7 -5 -6 -5 -6 -6
-1 -5 -8 -8 -10 -9 -9 -9 -9 -9 -9 -8 -8 -6 -3 -3 -3 -3 -3 -3 -2 -2 -3 -4 -4 -4 -4 -7 -9 -8 -7 -7 -8 -8 -7 -8 -6 -5 -7 -11 -6 -6 -6 -6
-1 -6 -5 -8 -9 -9 -8 -7 -6 -5 -4 -4 -3 -2 -2 -1 -2 -2 -2 -2 -2 -4 -3 -2 -2 -3 -3 -8 -8 -8 -8 -8 -8 -8 -7 -7 -5 -5 -9 -8 -7 -6 -6 -6
-8 -10 -9 -8 -7 -5 -5 -4 -3 -3 -2 -2 -2 -2 -2 -3 -4 -4 -6 -6 -6 -7 -7 -4 -3 -2 -3 -4 -6 -7 -7 -7 -7 -7 -8 -5 -5 -7 -7 -8 -6 -7 -6 -6
-8 -7 -6 -5 -3 -4 -4 -4 -5 -4 -3 -4 -5 -5 -6 -6 -7 -8 -7 -7 -9 -11 -10 -7 -6 -6 -6 -4 -4 -5 -6 -7 -7 -6 -6 -6 -6 -7 -7 -6 -6 -8 -7 -7
-4 -4 -3 -3 -5 -5 -6 -7 -7 -6 -7 -7 -8 -8 -7 -7 -8 -8 -8 -7 -7 -9 -12 -13 -12 -9 -6 -6 -6 -6 -6 -6 -6 -7 -7 -7 -7 -7 -7 -7 -7 -8 -8 -8
-3 -4 -5 -5 -5 -5 -6 -6 -8 -8 -8 -8 -11 -15 -15 -12 -10 -8 -8 -10 -12 -13 -13 -11 -9 -7 -8 -7 -6 -6 -7 -7 -7 -8 -8 -8 -8 -7 -8 -7 -7 -10 -8 -8
-5 -5 -5 -6 -7 -8 -8 -8 -10 -11 -10 -12 -16 -16 -16 -16 -14 -13 -15 -13 -14 -12 -10 -9 -9 -10 -11 -10 -9 -9 -9 -8 -8 -8 -8 -8 -8 -8 -9 -9 -10 -10 -10 -11
-5 -6 -7 -8 -9 -9 -10 -11 -13 -9 -11 -14 -16 -16 -15 -16 -17 -16 -15 -15 -17 -17 -13 -12 -11 -12 -13 -12 -12 -11 -11 -10 -10 -9 -9 -9 -9 -9 -9 -10 -11 -12 -12 -12
-6 -8 -10 -11 -11 -12 -12 -13 -12 -12 -14 -16 -16 -16 -16 -16 -16 -15 -15 -16 -16 -12 -11 -11 -12 -12 -12 -11 -11 -11 -11 -10 -10 -11 -11 -12 -12 -11 -11 -12 -12 -11 -13 -14
-8 -9 -11 -11 -14 -13 -15 -15 -13 -12 -16 -16 -16 -16 -16 -15 -15 -15 -14 -13 -12 -11 -12 -13 -13 -14 -13 -13 -13 -13 -13 -14 -14 -13 -13 -13 -13 -14 -15 -16 -15 -12 -12 -14
-10 -11 -14 -14 -15 -15 -15 -15 -15 -15 -16 -16 -16 -15 -15 -14 -14 -13 -13 -13 -13 -13 -15 -15 -16 -15 -14 -15 -15 -16 -16 -16 -16 -15 -15 -15 -15 -16 -15 -14 -13 -13 -12 -12
-12 -13 -13 -14 -15 -17 -15 -15 -15 -15 -15 -15 -15 -14 -14 -13 -14 -14 -15 -14 -15 -15 -15 -16 -16 -16 -16 -16 -17 -17 -17 -16 -15 -15 -16 -16 -16 -16 -16 -16 -15 -15 -14 -14
-13 -13 -14 -16 -18 -16 -15 -15 -15 -15 -15 -14 -14 -14 -14 -14 -16 -15 -14 -15 -15 -15 -17 -17 -17 -16 -16 -16 -16 -16 -16 -15 -15 -15 -15 -15 -15 -14 -14 -14 -14 -13 -13 -12
-14 -16 -17 -18 -17 -15 -15 -15 -15 -14 -14 -13 -14 -14 -15 -15 -15 -15 -15 -16 -17 -18 -18 -18 -18 -18 -17 -18 -17 -16 -16 -16 -16 -15 -15 -15 -15 -15 -15 -15 -15 -16 -16 -16
-17 -16 -16 -16 -15 -15 -15 -15 -15 -14 -14 -15 -14 -16 -15 -15 -15 -16 -17 -18 -18 -18 -18 -19 -19 -18 -19 -18 -18 -18 -18 -18 -17 -16 -16 -16 -16 -15 -15 -15 -15 -15 -15 -14
-20 -17 -17 -15 -15 -15 -15 -15 -15 -14 -14 -14 -15 -15 -15 -16 -16 -16 -17 -18 -18 -18 -18 -18 -18 -19 -19 -19 -19 -19 -18 -18 -17 -17 -15 -15 -15 -15 -15 -15 -15 -15 -15 -15
-17 -15 -16 -14 -14 -14 -15 -15 -14 -15 -14 -14 -16 -15 -15 -16 -17 -17 -18 -18 -18 -18 -18 -18 -18 -19 -19 -19 -19 -19 -19 -19 -19 -18 -17 -16 -16 -15 -15 -15 -15 -15 -15 -15